GFSWCAN_sfc_thetae_045.txt.gz
Theta_e
318 317 316 315 314 313 314 313 313 312 311 312 312 312 311 311 309 311 308 310 309 307 301 299 299 299 298 300 299 297 295 295 294 292 294 295 292 293 290 293 290 290 289 288 289 286 283 297 293 289 295 298 298 297
315 314 313 312 311 312 313 312 312 313 313 313 311 311 311 310 309 309 308 310 308 308 304 302 302 302 300 299 302 298 299 297 300 297 297 298 293 294 292 288 294 288 292 291 292 291 299 298 296 299 299 297 297 297
314 312 311 311 310 310 310 310 310 310 310 311 313 311 310 310 309 310 307 307 309 305 304 303 301 303 305 303 303 299 301 301 298 300 299 298 293 296 290 291 293 294 296 291 292 294 296 298 300 300 300 298 298 298
312 311 310 310 309 309 309 309 308 308 308 309 309 312 310 308 308 309 306 307 306 304 298 299 304 301 303 303 302 301 298 299 300 300 297 297 294 298 293 294 291 294 293 292 292 294 296 297 298 298 298 299 298 298
311 310 309 309 309 308 308 308 308 307 307 307 308 308 310 306 307 309 307 306 306 302 299 299 301 300 301 301 300 300 299 298 298 296 295 294 297 295 295 294 290 295 293 290 290 294 294 294 297 298 297 296 297 296
311 310 309 308 308 307 307 307 307 307 307 307 307 307 310 308 305 307 302 307 307 306 301 296 300 297 299 299 299 298 300 299 299 298 297 298 297 295 291 290 295 297 297 297 293 296 296 297 298 299 297 297 297 297
310 309 308 308 307 307 306 306 306 307 306 307 307 306 308 308 308 302 299 303 305 307 298 294 295 295 296 297 299 299 298 299 298 297 295 295 295 293 292 288 294 296 296 296 297 297 294 296 295 297 297 297 297 296
309 309 308 307 307 307 306 306 306 305 307 307 306 307 308 307 305 303 306 305 306 302 299 290 291 292 296 295 294 297 296 297 295 295 295 293 294 293 286 293 295 295 295 296 297 297 296 296 296 296 296 296 294 293
309 308 307 307 307 307 306 306 306 306 307 306 307 307 306 304 301 302 304 305 308 302 291 289 288 290 296 294 296 295 296 291 295 291 292 293 290 285 290 293 294 294 295 295 296 297 297 296 295 295 295 294 293 292
308 308 307 307 306 306 306 307 306 306 306 306 305 300 296 301 305 305 302 298 298 298 297 289 294 289 295 295 293 294 292 290 286 289 291 286 286 292 294 295 296 296 297 296 294 293 294 294 294 294 293 294 293 293
307 307 307 307 307 307 307 307 306 305 304 303 298 296 302 305 302 298 293 290 291 288 292 292 291 290 294 290 291 293 288 288 282 286 285 284 285 291 295 295 298 298 297 296 297 298 298 297 295 294 293 294 293 292
307 307 307 307 307 307 308 307 306 304 302 301 302 304 303 297 293 288 287 289 286 285 290 289 290 291 292 295 290 290 285 284 279 289 283 281 289 294 295 295 297 297 296 296 296 297 297 297 296 295 294 293 292 292
307 307 306 307 307 307 308 307 305 304 303 303 299 293 292 290 283 282 280 284 284 288 290 290 288 290 292 293 290 288 282 281 290 282 281 286 292 294 295 296 296 297 297 296 295 296 297 297 297 295 294 294 293 292
306 306 307 307 307 307 307 305 304 304 301 294 286 281 285 282 285 287 287 289 292 292 290 291 288 289 290 288 288 283 287 287 280 278 281 289 292 293 295 295 295 295 296 295 295 295 295 296 296 295 294 294 293 291
306 306 306 306 307 307 306 305 304 305 299 288 288 282 284 289 290 291 292 291 292 295 293 290 289 289 286 284 285 284 281 279 282 282 288 292 293 293 293 294 294 294 295 295 295 294 294 295 295 294 294 293 292 292
306 306 304 306 307 306 305 305 304 303 298 291 288 286 288 287 288 288 289 290 293 294 294 293 287 283 283 285 282 281 280 279 284 289 292 293 292 293 293 294 294 295 295 294 295 295 294 294 294 294 293 293 292 291
304 300 305 306 306 305 304 301 298 292 289 286 286 290 289 290 289 290 291 292 295 292 288 289 282 282 288 282 281 285 283 286 290 292 293 294 293 293 294 294 294 294 294 294 295 295 295 296 295 293 291 292 292 291
299 304 305 305 305 303 301 299 293 287 285 287 287 289 290 292 290 290 292 294 293 291 291 288 290 284 282 280 282 287 290 293 294 294 295 295 295 295 295 294 295 295 294 294 295 295 295 295 293 293 293 292 292 291
302 304 305 304 303 298 291 291 293 285 286 289 291 292 292 291 293 294 294 294 294 296 293 289 286 283 284 289 289 291 293 293 293 295 296 295 295 295 295 295 295 295 294 294 295 295 296 296 295 295 295 293 292 291
304 304 304 303 302 293 287 287 291 289 286 288 291 290 290 290 292 292 293 293 292 290 286 285 285 289 290 292 294 294 295 296 295 293 294 296 296 295 295 295 295 295 295 295 295 296 295 295 295 294 293 293 291 290
301 303 302 301 297 294 289 286 286 289 289 288 290 290 289 291 290 290 290 292 288 287 285 289 290 292 295 295 296 296 296 295 294 295 294 294 295 295 295 295 296 295 295 295 295 295 295 295 296 296 294 292 293 293
299 300 296 296 287 287 286 290 289 289 287 287 288 289 287 286 287 288 292 288 286 289 291 291 293 294 294 294 295 296 296 296 296 296 296 296 294 294 294 295 295 295 296 295 295 294 295 296 296 296 294 293 294 293
299 296 291 288 285 284 285 291 285 286 283 284 287 285 285 286 288 292 287 289 289 293 294 294 294 295 294 295 296 295 296 295 295 295 295 295 296 295 295 295 295 294 294 295 296 295 294 296 295 293 292 292 292 291
297 289 285 285 285 284 285 284 287 286 286 285 284 282 284 286 290 286 284 287 291 294 294 294 295 294 294 294 294 294 295 296 294 295 295 294 293 293 294 294 295 295 294 293 292 292 293 293 292 291 291 290 290 289
285 284 284 282 285 283 281 281 282 283 281 283 283 283 285 288 283 282 283 287 291 293 294 295 295 294 292 293 294 295 296 294 292 292 294 294 293 293 292 293 293 294 294 291 289 290 290 292 292 291 290 289 289 289
281 284 283 283 283 282 282 280 281 281 282 282 283 286 287 285 282 281 286 290 291 293 294 295 294 293 292 293 292 292 293 294 292 290 291 293 293 290 290 289 289 291 294 292 290 289 289 290 290 290 290 290 290 290
281 283 285 290 288 287 285 286 286 284 282 281 284 284 283 280 281 286 292 293 292 292 292 292 292 292 292 292 292 292 292 292 291 291 293 293 293 293 291 290 289 291 293 292 291 290 288 288 288 288 288 289 290 290
285 286 282 284 285 287 283 284 283 283 284 287 287 282 281 282 284 291 292 291 291 290 290 291 291 291 291 291 291 291 291 292 292 292 293 293 293 293 292 293 292 292 292 291 290 289 288 288 288 288 287 288 289 289
284 288 288 282 284 285 285 285 285 288 290 288 285 284 286 290 292 290 289 289 289 289 289 289 289 290 290 290 290 290 290 290 288 286 285 286 288 289 292 291 291 292 292 291 291 290 289 289 288 289 289 288 288 289
285 289 286 284 282 282 286 289 289 292 292 291 291 289 289 289 290 288 287 287 286 288 290 290 290 289 289 288 288 288 290 290 290 288 285 285 286 290 290 289 289 290 291 291 289 289 290 289 289 289 287 287 287 288
288 288 286 285 284 287 290 290 288 288 287 288 289 287 288 289 289 288 287 288 289 289 288 287 287 288 288 287 286 286 285 288 288 288 289 289 289 289 289 290 290 290 289 289 288 288 288 287 287 286 286 286 287 287
286 285 284 283 284 284 286 285 285 285 286 285 285 287 286 285 284 288 285 285 285 286 287 288 287 287 288 288 288 288 287 287 287 287 286 287 288 288 289 289 289 289 288 288 288 288 287 287 286 285 286 286 286 286
284 284 284 283 281 281 284 284 283 283 283 283 284 285 285 285 283 285 284 286 286 287 287 288 288 288 287 287 287 287 286 286 286 286 287 287 287 288 289 289 289 288 287 286 286 286 286 286 286 285 285 285 285 285

GFSWCAN_sfc_thetae_048.txt.gz
Theta_e
320 320 320 319 317 316 315 313 312 311 311 312 312 312 312 312 312 312 308 310 309 306 300 301 301 299 299 299 297 295 294 294 292 290 292 292 290 290 288 290 288 286 285 284 284 281 279 294 291 286 291 294 295 294
320 320 319 317 315 314 314 314 313 312 312 311 311 311 311 311 311 311 308 310 308 307 301 303 302 302 300 300 298 298 297 297 298 294 295 296 291 291 289 285 292 285 289 286 288 288 295 295 294 297 296 293 293 293
319 318 317 315 313 312 313 312 312 311 311 312 312 311 310 310 311 311 306 307 309 305 302 301 299 302 304 303 303 296 299 298 298 297 296 296 291 293 287 288 290 292 294 288 288 291 293 294 295 295 295 294 295 295
317 316 315 313 312 311 311 310 310 310 309 310 311 311 309 309 310 310 305 306 306 302 297 297 304 301 303 303 303 300 298 299 299 298 294 296 291 296 290 291 288 291 292 289 288 291 292 293 294 295 295 296 296 296
315 314 313 312 311 310 310 309 309 308 308 308 309 310 309 307 308 309 307 307 306 302 298 297 301 300 301 301 301 301 299 297 296 294 292 293 295 293 293 291 288 292 290 287 285 291 289 290 294 295 294 294 294 294
313 313 312 311 310 309 309 308 308 307 307 307 307 309 310 308 308 308 302 306 307 306 300 294 298 297 298 300 299 298 299 298 297 295 293 295 295 292 287 286 293 294 295 294 290 293 293 294 294 295 293 294 295 294
312 311 311 310 309 309 309 308 307 307 307 307 306 308 309 308 308 301 299 302 305 306 298 294 293 295 297 297 297 297 297 296 295 295 292 292 292 292 289 285 292 294 294 293 294 293 290 292 292 295 295 294 295 294
311 311 310 310 309 308 307 307 307 307 307 306 306 308 307 306 305 302 305 306 306 301 298 289 291 291 296 293 292 296 294 294 294 293 292 290 291 290 284 291 293 294 292 292 293 293 292 293 294 294 295 294 292 291
310 310 310 309 308 307 307 306 306 307 307 307 308 307 306 304 300 301 305 305 308 302 289 289 286 288 294 292 293 293 294 290 292 289 290 290 288 283 289 291 292 293 291 291 292 293 293 292 292 293 293 292 290 290
309 309 309 309 308 307 306 307 306 307 307 307 304 300 294 300 304 304 303 298 297 297 296 291 294 289 293 292 291 291 290 288 284 287 289 286 285 290 292 293 293 293 294 293 289 289 290 291 291 291 291 292 291 290
309 309 309 308 308 307 307 307 307 307 306 302 298 295 301 304 301 298 292 290 291 287 291 291 291 289 293 289 289 291 287 287 281 284 283 282 281 288 292 293 294 295 294 291 291 291 292 293 292 291 291 292 291 289
308 308 308 307 307 307 308 307 306 303 302 301 301 303 302 297 294 288 287 289 286 285 290 288 289 291 291 293 290 289 285 284 278 288 283 279 285 291 292 292 294 294 294 292 293 292 292 293 293 292 291 291 291 290
308 308 307 307 307 308 307 306 305 305 304 304 298 292 291 290 282 281 279 283 284 288 290 289 287 289 290 291 289 286 282 281 287 282 279 282 289 291 291 292 292 294 294 293 293 293 293 292 293 293 292 291 291 291
307 307 307 307 307 307 307 305 305 305 302 292 286 280 284 282 284 286 287 288 291 291 289 290 288 288 289 287 287 281 285 285 280 278 278 285 289 289 291 292 292 290 291 292 293 293 292 291 291 293 293 291 290 290
306 306 306 306 307 307 306 305 305 305 299 287 289 281 283 289 290 291 291 291 293 293 291 288 288 288 286 284 285 284 280 278 279 279 284 289 289 289 289 290 290 290 290 290 291 291 291 291 291 291 292 291 290 290
306 306 303 306 307 306 305 304 304 303 297 289 287 286 288 287 287 288 289 289 293 292 293 290 285 283 282 283 281 279 278 277 281 286 289 289 289 289 290 291 291 291 290 291 291 291 291 291 290 291 292 291 290 290
305 300 306 306 306 304 304 301 299 292 287 286 285 290 289 288 288 289 290 291 295 290 286 288 282 280 285 281 280 283 280 283 287 288 290 290 290 291 291 291 291 291 291 291 291 291 291 292 292 291 289 290 290 290
300 304 306 306 304 302 301 299 293 287 284 287 285 287 290 291 290 290 291 293 292 290 290 287 289 283 279 277 280 284 287 289 290 291 291 292 292 292 292 291 292 292 292 292 291 291 291 290 289 288 290 290 289 289
303 304 305 305 302 297 291 291 293 285 286 288 289 290 291 291 292 293 293 293 294 295 292 288 283 282 283 286 286 288 289 289 289 291 292 293 293 292 293 293 293 292 291 292 291 290 290 291 290 290 290 291 288 288
305 305 304 303 302 293 286 286 292 287 285 288 290 289 289 289 291 292 292 292 291 290 285 284 284 286 287 289 291 291 291 292 291 290 290 292 293 293 293 292 292 292 292 292 292 295 291 290 291 291 290 290 288 288
302 302 302 301 296 293 290 285 286 288 289 287 289 290 288 290 289 288 288 291 289 286 285 288 288 290 292 292 293 293 292 292 291 291 290 290 292 293 293 293 293 293 291 290 290 290 293 290 291 292 294 291 290 290
299 300 295 296 287 286 286 290 288 290 288 288 288 289 286 285 286 287 291 287 286 287 289 289 290 291 291 291 292 293 294 294 293 293 295 294 291 290 291 292 292 289 290 290 291 290 291 292 293 294 293 293 293 291
298 295 290 287 285 285 284 291 285 286 282 284 287 284 285 285 287 291 286 287 288 291 292 292 292 293 292 293 293 293 294 293 292 292 293 292 292 292 291 291 292 290 289 290 291 290 290 293 293 293 293 292 290 290
297 289 285 285 285 283 285 284 287 285 286 284 282 280 283 285 289 285 283 285 289 292 291 292 292 292 292 292 292 292 293 294 293 292 292 291 290 290 291 291 291 292 293 292 291 290 291 291 293 292 291 290 289 289
284 283 285 282 285 283 282 282 282 283 281 283 282 281 283 286 283 282 282 284 287 289 291 291 292 292 291 291 291 292 294 292 290 289 290 291 290 289 289 289 291 292 293 291 290 290 290 291 291 291 291 290 289 289
278 283 282 282 282 282 281 279 280 281 282 281 282 284 286 283 280 279 283 286 288 290 291 291 290 290 290 291 289 289 291 291 290 287 289 290 289 288 288 287 288 289 293 292 291 289 289 289 289 289 289 290 291 290
280 282 285 289 286 284 283 284 284 282 280 280 282 282 282 277 278 283 288 290 290 289 290 290 290 290 289 289 290 290 290 290 289 289 290 290 290 291 290 288 287 289 291 290 290 289 288 287 287 287 287 289 289 289
285 285 281 284 285 286 282 283 282 281 282 285 285 280 278 280 281 287 289 289 290 289 288 288 290 289 289 289 289 289 289 289 290 290 290 290 290 290 290 291 291 292 291 289 290 289 288 287 287 287 286 287 288 290
284 287 286 282 284 284 283 283 283 285 287 286 283 283 284 287 289 288 287 288 288 287 285 286 286 289 288 288 288 288 288 287 285 281 280 281 286 287 288 289 289 290 290 290 291 290 289 289 288 287 288 287 288 289
284 288 285 283 281 281 284 287 286 289 290 290 289 287 286 287 287 288 287 286 285 285 287 287 288 287 285 286 286 286 288 287 287 285 284 284 285 287 288 288 287 288 289 289 288 288 290 288 288 287 287 286 286 286
287 287 284 284 282 285 287 289 288 288 287 287 288 286 286 286 286 286 286 286 286 287 288 286 285 286 286 285 284 283 284 286 286 287 287 287 287 288 288 288 289 289 289 289 288 287 287 286 286 286 285 285 285 285
286 285 283 282 284 285 287 285 285 284 284 284 284 285 285 283 283 285 284 285 285 285 287 287 285 286 288 287 286 286 288 286 286 286 286 285 286 287 288 288 288 288 287 286 286 286 286 286 284 284 285 285 285 285
285 285 285 285 282 282 283 284 283 283 283 282 283 284 284 283 282 282 283 283 284 285 285 286 287 288 286 285 285 285 286 285 286 287 287 287 287 287 287 288 288 287 286 285 285 285 285 285 284 284 283 284 285 284

GFSWCAN_sfc_thetae_054.txt.gz
Theta_e
316 318 318 319 319 318 318 316 314 312 312 311 310 310 311 312 312 302 299 301 299 291 291 295 296 292 292 290 288 288 288 287 285 282 281 282 279 285 282 283 281 280 276 275 275 273 275 291 287 284 286 288 289 288
316 317 318 319 319 318 318 317 314 312 312 311 310 309 310 312 312 305 295 300 301 295 292 296 297 296 295 294 291 289 290 288 288 284 284 284 283 282 283 278 285 281 284 281 282 281 289 289 288 291 290 289 288 288
316 317 318 318 319 319 318 317 314 312 312 311 310 308 310 312 311 303 296 296 298 293 292 294 293 296 298 297 297 290 291 293 291 291 289 286 284 284 279 281 283 287 288 283 284 286 287 289 290 290 290 289 290 290
316 317 318 318 319 318 317 316 314 313 312 311 310 308 310 311 309 303 296 296 295 293 288 290 298 293 297 297 296 294 293 293 291 290 287 279 281 288 283 286 284 288 287 284 283 285 287 288 288 289 290 290 290 290
315 316 317 318 318 317 316 315 313 312 312 312 311 308 309 308 307 301 297 296 297 290 287 288 292 294 295 296 296 295 293 291 288 287 285 282 287 285 284 284 282 288 287 283 283 287 286 285 288 290 290 290 290 289
315 316 317 317 317 316 315 314 313 312 311 311 311 309 309 309 306 297 291 297 299 297 290 281 290 290 293 294 294 293 293 290 289 287 286 287 289 286 276 277 288 289 289 289 287 287 288 289 290 290 289 290 291 290
315 316 317 317 316 314 313 312 312 310 310 310 310 309 308 305 298 293 289 295 302 296 289 281 281 289 291 291 290 290 290 289 289 286 285 286 286 286 276 276 287 289 288 288 289 289 286 287 287 289 290 292 292 290
315 316 317 316 314 313 312 311 310 309 308 309 310 308 307 306 302 295 298 303 298 291 288 279 279 284 288 286 285 288 287 287 287 286 286 285 285 282 276 285 288 290 288 287 288 288 288 288 289 289 290 290 289 288
315 316 316 314 313 312 311 310 309 309 308 310 308 306 299 296 291 293 304 302 296 288 279 278 277 277 287 285 286 287 286 280 285 281 284 283 280 276 284 286 287 288 288 288 288 288 288 287 287 288 288 288 287 288
315 316 315 313 311 311 310 309 309 308 309 307 299 293 287 293 303 301 294 289 288 287 286 279 283 279 285 282 279 281 278 277 275 281 283 277 279 285 287 288 289 290 289 289 285 284 285 285 286 286 287 289 288 288
315 314 312 311 310 309 309 309 308 308 305 296 291 291 295 302 293 289 285 283 282 279 283 283 284 282 287 283 281 283 277 278 273 278 278 276 276 282 286 286 288 289 290 289 288 288 288 288 287 287 287 288 289 288
314 312 311 309 309 308 308 308 308 300 297 297 295 297 295 289 283 281 277 282 279 279 284 283 283 284 285 287 283 280 276 275 272 280 274 275 279 284 286 287 289 288 289 289 290 289 289 288 288 287 287 287 288 289
312 310 309 308 308 308 308 307 304 303 302 294 291 286 284 282 275 277 275 276 275 282 284 283 282 284 284 285 281 278 272 273 280 273 275 278 282 285 286 287 288 289 289 289 289 288 289 289 289 288 288 288 288 288
310 309 308 307 307 307 307 305 305 302 294 287 282 277 279 273 277 279 280 280 284 284 285 283 281 282 282 280 279 273 278 279 270 270 275 279 283 285 284 286 286 285 286 286 287 287 288 288 287 288 288 288 287 288
308 307 306 306 307 307 305 306 304 298 291 285 282 277 277 282 282 283 283 284 284 287 285 283 282 283 277 276 278 276 278 269 274 275 277 282 283 283 284 285 285 284 285 286 286 286 287 287 286 287 287 287 287 288
307 306 303 306 306 305 305 304 300 296 290 284 282 278 282 281 280 281 282 283 285 286 286 284 279 278 277 277 273 273 272 272 276 279 282 283 282 282 283 284 285 285 285 286 286 286 287 287 287 287 287 287 288 288
303 298 305 306 305 305 303 296 292 288 284 278 278 285 283 283 282 281 284 285 289 287 278 278 279 274 275 268 269 276 275 278 280 282 284 284 283 285 285 286 286 287 287 287 286 286 287 288 287 286 285 287 287 288
298 304 305 305 304 301 296 293 288 282 280 285 281 283 284 284 283 283 285 288 286 285 283 280 280 277 272 271 274 279 280 282 283 283 284 284 285 285 287 286 287 287 287 287 287 287 287 286 286 286 286 287 287 287
302 303 304 304 300 294 289 289 288 281 284 285 285 285 285 284 285 286 286 288 287 288 287 278 272 273 278 280 280 281 282 283 283 284 285 285 286 287 287 288 288 287 287 287 287 287 287 287 286 286 285 286 283 286
304 304 303 302 298 290 286 285 288 285 283 285 285 283 283 284 285 285 287 286 286 286 285 282 278 280 281 283 284 284 285 285 284 282 283 285 286 286 287 287 288 288 287 286 287 290 287 287 288 287 287 287 286 286
301 301 300 295 291 289 287 285 285 286 286 284 285 284 282 284 283 283 283 285 284 283 279 283 283 285 286 286 287 287 286 286 284 284 285 284 287 286 287 288 287 286 286 286 285 286 287 285 286 288 288 287 287 288
298 300 292 293 286 286 285 287 287 288 285 284 283 283 281 281 280 282 283 281 280 283 284 284 285 286 286 286 287 287 288 287 287 287 291 289 285 285 286 287 286 284 285 285 286 286 286 289 290 291 290 290 292 292
298 294 289 286 284 284 283 289 283 283 281 280 281 278 278 280 281 284 279 281 282 285 288 287 288 288 287 288 287 287 288 287 286 286 287 287 287 287 286 287 287 286 284 285 287 287 286 291 291 291 291 291 290 291
295 288 284 283 283 281 285 283 284 283 283 281 279 276 277 279 280 277 278 280 283 285 285 286 287 285 285 285 285 287 288 287 286 286 286 285 285 285 286 286 286 286 287 287 286 286 288 290 291 290 290 289 289 289
284 282 283 280 284 281 280 281 281 281 279 279 277 276 277 280 276 277 279 280 281 283 284 284 284 285 284 284 284 285 288 287 286 285 286 286 285 284 284 284 284 285 287 285 284 285 286 289 289 288 288 288 288 288
278 281 279 280 280 280 280 278 279 280 280 279 279 279 277 277 272 274 278 280 280 281 282 282 282 282 282 284 284 284 287 287 286 285 285 286 285 284 283 282 282 283 287 289 288 287 287 287 287 286 286 287 288 287
277 276 281 284 283 283 281 281 282 280 279 277 278 278 276 270 273 279 281 282 280 282 285 284 285 285 283 282 286 286 286 286 286 286 286 286 286 286 286 283 283 286 290 289 288 288 287 286 286 286 286 286 287 287
282 282 280 282 282 282 280 280 280 279 279 279 280 276 275 276 276 281 282 284 281 285 283 283 286 286 285 286 286 286 285 286 286 286 285 284 285 286 286 287 288 291 289 289 289 289 288 287 286 286 286 286 286 288
282 283 283 279 280 280 279 280 279 280 282 281 279 279 279 281 283 283 283 280 283 282 280 279 280 284 284 284 284 285 285 284 282 280 280 277 284 284 286 287 286 285 285 287 290 290 289 289 287 287 287 286 286 288
279 283 280 280 277 278 281 282 281 282 282 282 282 282 282 282 280 277 280 281 280 281 282 280 279 283 280 282 282 282 284 284 284 282 279 279 279 283 284 285 285 287 287 288 288 289 290 289 287 286 286 285 285 286
282 282 279 280 277 280 281 281 282 282 281 282 282 282 281 281 283 282 283 280 278 278 282 279 279 281 282 282 281 281 281 282 283 284 284 283 283 283 284 284 286 287 287 286 285 285 286 286 284 284 284 285 285 285
281 281 280 276 277 280 281 281 281 281 280 281 280 280 280 280 280 282 282 281 281 281 284 283 282 281 283 283 283 283 287 283 283 284 284 282 282 282 283 283 287 287 286 285 284 285 285 285 284 283 283 283 284 285
279 280 280 279 275 278 280 279 279 277 278 278 279 280 280 281 281 282 278 278 281 282 282 283 283 284 284 283 283 283 285 282 285 288 288 287 287 285 285 283 286 287 285 284 284 284 283 283 282 283 283 283 284 284

GFSWCAN_sfc_thetae_057.txt.gz
Theta_e
318 319 318 317 317 318 319 318 316 314 313 312 311 310 311 313 310 301 298 300 297 290 291 294 294 290 291 290 288 287 288 287 285 282 281 281 278 284 281 282 281 280 275 274 274 273 274 289 286 283 285 287 288 287
316 318 317 316 317 318 319 318 317 314 313 312 311 309 310 312 312 302 297 300 298 293 291 295 295 294 294 293 290 287 289 286 288 283 282 282 282 281 282 279 283 280 283 279 280 280 287 287 287 289 289 288 286 286
312 318 317 316 317 318 318 318 317 314 313 312 310 308 310 311 312 302 295 296 296 292 291 292 291 295 296 295 295 290 289 291 289 290 287 285 284 283 279 280 280 285 286 282 283 285 286 287 288 289 289 288 289 288
311 317 316 316 317 318 318 318 317 314 312 311 310 308 310 310 308 302 296 295 294 291 287 289 296 292 295 295 294 293 292 291 290 289 286 279 281 287 282 284 283 286 285 283 282 284 285 286 287 288 289 289 289 289
310 315 316 316 317 317 317 317 316 314 312 311 310 309 309 308 306 300 296 295 295 290 286 287 291 293 293 294 294 294 293 290 287 286 284 281 285 285 282 282 280 286 285 283 282 286 285 285 288 290 289 288 288 288
309 316 315 316 316 317 317 316 315 314 313 312 310 309 308 307 304 293 288 294 298 295 289 281 289 289 292 293 292 292 291 289 287 286 284 285 288 285 275 276 285 288 288 288 287 286 287 287 290 289 288 288 289 289
309 315 315 316 316 316 316 314 313 313 312 312 310 309 307 305 298 290 288 292 301 294 288 281 281 288 289 290 289 289 289 287 288 285 285 285 285 284 275 274 286 287 287 286 287 288 285 287 287 289 289 290 291 289
310 315 314 315 316 316 315 313 312 312 311 311 309 308 306 305 301 294 298 302 295 289 287 279 278 283 287 285 284 286 285 286 285 284 284 284 284 280 276 284 287 289 287 286 287 287 286 288 288 288 289 289 288 288
311 314 314 315 316 315 314 313 311 311 310 309 307 305 299 295 291 293 304 299 293 288 279 276 277 276 286 284 284 285 284 279 283 280 282 282 279 276 284 285 287 288 286 287 286 286 286 287 287 288 287 287 286 287
308 313 313 314 315 314 313 311 310 309 309 307 298 291 288 292 302 300 292 288 286 285 285 278 281 279 284 280 279 280 277 277 275 280 282 276 279 284 286 288 288 289 288 288 284 283 284 285 286 286 286 287 287 287
308 313 313 314 314 312 311 309 309 308 305 296 292 290 294 301 292 288 284 282 281 278 283 282 282 282 286 282 281 281 276 276 273 278 278 276 276 281 284 285 286 286 289 288 288 288 287 286 286 286 286 286 287 287
309 312 314 313 312 310 309 308 308 301 297 297 296 297 294 288 284 281 278 281 279 280 282 282 282 284 284 286 282 279 276 274 272 279 274 275 279 283 284 285 285 287 287 289 289 289 288 287 287 286 285 286 286 287
309 310 313 312 310 309 308 307 305 303 301 295 291 287 283 280 274 278 274 277 276 282 282 282 281 283 283 284 280 277 272 273 279 272 275 278 281 284 284 285 286 287 288 288 288 288 289 288 288 287 287 287 286 286
309 308 312 310 309 308 307 305 304 301 294 288 284 277 280 273 277 279 280 281 282 283 284 282 280 282 281 280 278 273 277 276 269 270 274 278 281 283 283 284 285 284 284 284 285 286 286 286 286 287 287 286 286 286
308 310 309 308 307 306 305 305 303 297 291 284 283 281 276 281 281 281 282 282 283 287 284 282 281 281 275 275 275 276 278 276 274 275 277 280 282 283 282 284 283 284 285 285 285 286 286 286 285 285 286 286 286 286
309 309 306 306 305 304 304 303 299 295 289 284 280 278 281 281 280 282 282 282 284 285 284 282 277 273 275 276 272 273 272 272 275 278 281 282 282 282 282 284 285 284 284 285 285 285 286 286 286 286 286 286 286 286
309 301 305 304 304 304 303 296 292 287 283 277 279 284 283 285 283 282 285 284 289 285 279 278 270 272 275 268 271 275 274 277 279 280 282 282 282 283 283 283 284 286 286 285 285 286 286 287 286 285 285 286 286 287
300 303 304 303 302 300 295 293 287 282 279 283 279 283 284 285 285 284 284 288 286 283 283 280 279 275 273 271 273 278 279 281 281 282 282 283 283 283 285 285 286 286 285 286 286 286 286 285 285 284 285 285 285 285
301 301 303 302 300 295 289 288 287 277 280 283 284 285 285 284 285 287 289 287 287 287 284 276 273 274 278 279 279 280 280 281 282 283 284 284 284 285 286 285 285 285 285 285 285 286 286 286 284 284 283 285 280 284
302 302 302 302 299 290 286 285 287 283 282 284 285 284 284 284 284 286 288 285 286 285 278 274 278 281 281 282 283 283 283 284 283 282 283 284 285 285 285 285 285 285 285 285 286 289 286 286 286 286 286 287 288 286
300 300 301 295 290 289 287 284 283 284 285 284 285 285 282 284 283 283 283 285 282 280 279 283 283 284 285 285 285 286 285 285 283 283 283 282 285 284 285 285 285 285 285 284 284 285 286 284 286 286 289 289 289 289
298 300 292 293 286 285 285 288 286 287 284 284 284 284 282 281 280 281 283 281 281 286 284 284 285 286 285 285 286 285 287 286 285 285 289 288 284 284 285 285 285 282 284 284 285 284 284 285 286 287 290 290 291 290
297 294 288 286 284 285 283 287 282 282 282 281 282 280 279 280 281 284 280 282 283 284 286 287 287 287 287 287 286 286 286 285 284 284 285 285 285 285 285 285 285 285 284 284 285 285 285 289 289 289 289 289 289 289
295 287 283 282 283 280 285 282 284 283 282 280 279 277 279 279 281 278 278 281 282 284 284 285 285 284 284 284 283 285 286 286 285 285 285 284 284 284 285 285 285 285 286 285 285 284 285 285 288 287 288 288 288 288
284 282 283 280 283 278 280 280 281 280 279 280 279 278 278 280 276 278 279 280 280 281 283 283 283 284 282 282 283 284 286 286 284 284 285 285 284 283 283 283 283 285 286 284 283 284 287 287 287 286 285 286 286 287
277 280 280 279 279 278 279 278 279 280 280 280 279 278 278 278 274 274 278 280 280 281 280 282 282 281 281 283 283 282 285 286 285 284 284 285 285 283 282 282 281 282 286 286 286 286 286 287 286 286 286 286 287 287
276 276 281 283 283 282 281 282 282 281 280 277 277 278 276 271 274 279 281 281 279 280 282 283 284 283 282 279 283 285 285 286 286 286 285 285 285 285 285 282 282 284 287 288 288 288 287 287 286 286 285 286 287 286
282 282 279 281 281 283 280 281 280 279 279 280 280 277 277 277 277 281 282 283 281 283 282 283 285 285 284 285 285 285 284 285 285 285 284 284 284 284 285 286 287 291 287 286 286 286 288 287 287 286 286 285 286 287
281 283 283 280 281 281 281 280 280 281 281 281 279 279 279 281 283 282 282 280 283 282 281 281 278 283 283 283 284 284 284 284 282 280 280 277 283 281 284 285 284 283 284 287 289 290 289 289 287 286 286 286 286 287
281 283 281 281 279 278 280 280 280 281 281 282 282 282 282 282 278 276 280 280 280 281 281 280 280 283 281 282 281 281 283 283 283 282 279 279 279 282 283 283 283 284 285 287 287 287 289 288 287 285 285 285 285 286
283 282 280 280 277 279 280 281 282 282 281 281 281 281 280 281 282 281 282 279 277 278 281 278 278 280 282 282 281 281 281 282 282 283 283 282 282 282 283 283 283 284 285 286 285 284 284 285 285 283 283 283 284 285
281 280 280 277 278 280 281 281 281 281 280 281 280 280 280 281 280 282 281 280 281 281 284 284 281 281 282 283 283 283 287 283 283 283 283 282 282 282 282 282 283 284 284 285 284 285 285 284 283 283 283 283 283 285
279 280 280 279 276 278 279 279 279 277 278 278 279 280 280 281 281 283 278 278 281 282 282 282 283 283 283 283 283 283 285 282 285 288 288 287 286 284 283 282 283 285 284 284 284 283 283 282 282 282 282 283 283 283